Weather History for KMBS - November, 2013

Change the Weather History Date:

Wednesday, November 6, 2013

  Actual Average Record
Temperature  
Mean Temperature 49 °F 42 °F  
Max Temperature 57 °F 51 °F 72 °F (2008)
Min Temperature 40 °F 34 °F 26 °F (2010)
Degree Days  
Heating Degree Days 16    
Month to date heating degree days 114  
Since 1 July heating degree days 673  
Cooling Degree Days 0    
Month to date cooling degree days 0  
Year to date cooling degree days 668  
Moisture  
Dew Point 47 °F    
Average Humidity 80    
Maximum Humidity 93    
Minimum Humidity 66    
Precipitation  
Precipitation 0.26 in 0.09 in 0.31 in (1997)
Month to date precipitation 0.47 0.56  
Year to date precipitation 29.97 27.54  
Snow  
Snow 0.00 in - - ()
Month to date snowfall 0.0  
Since 1 July snowfall 0.0  
Since 1 September snowfall 0.0  
Snow Depth 0.00 in    
Sea Level Pressure  
Sea Level Pressure 29.86 in    
Wind  
Wind Speed 14 mph (SW)    
Max Wind Speed 28 mph    
Max Gust Speed 35 mph    
Visibility 8 miles    
Events Rain    
T = Trace of Precipitation, MM = Missing Value Source: NWS Daily Summary

Daily Weather History Graph

Daily Weather History Graph

Search for Another Location

Airport or City:

Trip Planner

Search our weather history database for the weather conditions in past years. The results will help you decide how hot, cold, wet, or windy it might be!

Date:

Astronomy

Nov. 06, 2013 Rise Set
Actual Time 7:18 AM EST 5:20 PM EST
Civil Twilight 6:48 AM EST 5:50 PM EST
Nautical Twilight 6:14 AM EST 6:24 PM EST
Astronomical Twilight 5:40 AM EST 6:58 PM EST
Moon 10:35 AM EST (11/6) 8:21 PM EST (11/6)
Length of Visible Light 11h 02m
Length of Day
10h 01m
Waxing Crescent, 13% of the Moon is Illuminated
Nov 6
Waxing Crescent
Nov 10
First Quarter
Nov 17
Full
Nov 25
Last Quarter
Dec 2
New

Hourly Weather History & Observations

Time (EST) Temp. Windchill Dew Point Humidity Pressure Visibility Wind Dir Wind Speed Gust Speed Precip Events Conditions
12:53 AM 53.1 °F - 44.1 °F 71% 30.09 in 10.0 mi South 11.5 mph 19.6 mph N/A   Scattered Clouds
1:53 AM 54.0 °F - 43.0 °F 66% 30.06 in 10.0 mi South 13.8 mph - N/A   Mostly Cloudy
2:53 AM 53.1 °F - 43.0 °F 69% 30.03 in 10.0 mi South 12.7 mph - 0.00 in Rain Light Rain
3:53 AM 52.0 °F - 45.0 °F 77% 30.00 in 10.0 mi SSW 12.7 mph - 0.00 in Rain Light Rain
4:53 AM 51.1 °F - 45.0 °F 80% 29.97 in 8.0 mi South 11.5 mph - 0.00 in Rain Light Rain
5:53 AM 51.1 °F - 46.0 °F 83% 29.94 in 10.0 mi South 13.8 mph - 0.00 in Rain Light Rain
6:53 AM 51.1 °F - 46.0 °F 83% 29.89 in 10.0 mi South 10.4 mph - 0.01 in Rain Light Rain
7:22 AM 51.8 °F - 46.4 °F 82% 29.87 in 10.0 mi South 12.7 mph 19.6 mph 0.01 in   Overcast
7:53 AM 53.1 °F - 46.0 °F 77% 29.87 in 10.0 mi SSW 11.5 mph - 0.01 in Rain Light Rain
8:03 AM 53.6 °F - 46.4 °F 77% 29.86 in 2.5 mi South 10.4 mph - 0.00 in Rain Rain
8:34 AM 51.8 °F - 48.2 °F 88% 29.86 in 3.0 mi SSW 11.5 mph - N/A Rain Rain
8:53 AM 51.1 °F - 48.9 °F 92% 29.87 in 2.5 mi South 9.2 mph - N/A Rain Rain
9:06 AM 51.8 °F - 48.2 °F 88% 29.85 in 3.0 mi South 11.5 mph 19.6 mph 0.00 in Rain Light Rain
9:53 AM 54.0 °F - 52.0 °F 93% 29.83 in 10.0 mi South 16.1 mph 24.2 mph 0.02 in Rain Light Rain
10:20 AM 55.4 °F - 53.6 °F 94% 29.82 in 10.0 mi SSW 16.1 mph 25.3 mph 0.01 in Rain Light Rain
10:53 AM 55.9 °F - 53.1 °F 90% 29.82 in 10.0 mi SSW 16.1 mph 27.6 mph 0.01 in Rain Light Rain
11:53 AM 57.0 °F - 53.1 °F 87% 29.80 in 10.0 mi SSW 17.3 mph 31.1 mph 0.02 in Rain Light Rain
12:53 PM 55.9 °F - 53.1 °F 90% 29.77 in 5.0 mi SSW 17.3 mph 25.3 mph 0.02 in Rain Light Rain
1:34 PM 55.4 °F - 53.6 °F 94% 29.76 in 2.0 mi SW 16.1 mph - 0.01 in Rain Rain
1:53 PM 55.9 °F - 54.0 °F 93% 29.75 in 2.0 mi SSW 13.8 mph - 0.01 in Rain Light Rain
2:02 PM 55.4 °F - 53.6 °F 94% 29.74 in 8.0 mi SSW 15.0 mph 21.9 mph 0.01 in Rain Light Rain
2:14 PM 55.4 °F - 53.6 °F 94% 29.71 in 10.0 mi South 13.8 mph 23.0 mph 0.01 in Rain Light Rain
2:22 PM 57.2 °F - 53.6 °F 88% 29.71 in 10.0 mi South 16.1 mph - 0.01 in Rain Light Rain
2:45 PM 57.2 °F - 53.6 °F 88% 29.72 in 10.0 mi SSW 16.1 mph 25.3 mph 0.02 in   Overcast
2:53 PM 57.0 °F - 53.1 °F 87% 29.71 in 10.0 mi SSW 17.3 mph 27.6 mph 0.02 in   Overcast
3:53 PM 57.0 °F - 53.1 °F 87% 29.73 in 10.0 mi SSW 19.6 mph 28.8 mph 0.02 in   Overcast
4:53 PM 57.0 °F - 53.1 °F 87% 29.74 in 10.0 mi SSW 17.3 mph 25.3 mph 0.01 in   Overcast
5:24 PM 55.4 °F - 53.6 °F 94% 29.75 in 6.0 mi SW 17.3 mph 27.6 mph 0.01 in Rain Light Rain
5:53 PM 54.0 °F - 50.0 °F 86% 29.78 in 10.0 mi West 19.6 mph 29.9 mph 0.02 in   Overcast
6:53 PM 46.0 °F 38.0 °F 41.0 °F 83% 29.85 in 10.0 mi WNW 21.9 mph 27.6 mph 0.01 in   Overcast
7:53 PM 45.0 °F 38.5 °F 39.0 °F 80% 29.91 in 10.0 mi WNW 13.8 mph - 0.02 in   Overcast
8:53 PM 44.1 °F 37.1 °F 37.9 °F 79% 29.96 in 10.0 mi WNW 15.0 mph - 0.01 in   Overcast
9:27 PM 44.6 °F 38.4 °F 35.6 °F 71% 29.96 in 10.0 mi WNW 12.7 mph - 0.01 in   Overcast
9:53 PM 43.0 °F 36.8 °F 36.0 °F 76% 29.98 in 10.0 mi WNW 11.5 mph - 0.01 in   Overcast
10:53 PM 42.1 °F 36.6 °F 35.1 °F 76% 29.98 in 10.0 mi WNW 9.2 mph - 0.02 in   Mostly Cloudy
11:06 PM 41.0 °F 35.2 °F 35.6 °F 81% 29.99 in 10.0 mi WNW 9.2 mph - N/A   Scattered Clouds
11:53 PM 39.9 °F 34.5 °F 34.0 °F 79% 30.00 in 10.0 mi WNW 8.1 mph - 0.01 in   Scattered Clouds